• In Deutschland
  • Länderverzeichnis
  • Für 7 Tage
  • Wassertemperatur
  • Satellitenkarten
  • Wetterkarte
  • Widgets
  • user-avatar
    Anmelden

    Stündliche Wetter Moers

    Heute, 20 Juli, Freitag

    Zeit Temperatur Niederschläge Wind Luftdruck Luftfeuchtigkeit
    00:00 +20°C° 0 mm 1 m/S 760 mmHg 67%
    01:00 +20°C° 0 mm 1 m/S 760 mmHg 69%
    02:00 +19°C° 0 mm 1 m/S 759 mmHg 70%
    03:00 +19°C° 0 mm 1 m/S 759 mmHg 72%
    04:00 +20°C° 0 mm 1 m/S 759 mmHg 69%
    05:00 +20°C° 0 mm 1 m/S 759 mmHg 66%
    06:00 +21°C° 0 mm 1 m/S 759 mmHg 63%
    07:00 +23°C° 0 mm 1 m/S 759 mmHg 57%
    08:00 +25°C° 0 mm 1 m/S 758 mmHg 50%
    09:00 +27°C° 0 mm 1 m/S 758 mmHg 44%
    10:00 +28°C° 0 mm 1 m/S 758 mmHg 40%
    11:00 +30°C° 0 mm 1 m/S 758 mmHg 37%
    12:00 +31°C° 0 mm 1 m/S 757 mmHg 33%
    13:00 +31°C° 0 mm 1 m/S 757 mmHg 33%
    14:00 +31°C° 0 mm 1 m/S 757 mmHg 32%
    15:00 +31°C° 0 mm 1 m/S 756 mmHg 31%
    16:00 +30°C° 0 mm 1 m/S 756 mmHg 34%
    17:00 +30°C° 0 mm 1 m/S 756 mmHg 37%
    18:00 +29°C° 0 mm 1 m/S 756 mmHg 40%
    19:00 +28°C° 0 mm 1 m/S 756 mmHg 44%
    20:00 +26°C° 0 mm 1 m/S 756 mmHg 47%
    21:00 +24°C° 0 mm 1 m/S 756 mmHg 51%
    22:00 +24°C° 0,1 mm 1 m/S 756 mmHg 55%
    23:00 +23°C° 0,1 mm 2 m/S 756 mmHg 60%

    Morgen, 21 Juli, Samstag

    Zeit Temperatur Niederschläge Wind Luftdruck Luftfeuchtigkeit
    00:00 +21°C° 0,1 mm 2 m/S 756 mmHg 64%
    01:00 +22°C° 0,4 mm 1 m/S 755 mmHg 66%
    02:00 +21°C° 0,4 mm 1 m/S 755 mmHg 67%
    03:00 +19°C° 0,4 mm 0 m/S 755 mmHg 69%
    04:00 +22°C° 0,2 mm 1 m/S 755 mmHg 68%
    05:00 +23°C° 0,2 mm 1 m/S 755 mmHg 66%
    06:00 +23°C° 0,2 mm 1 m/S 755 mmHg 65%
    07:00 +25°C° 0 mm 1 m/S 755 mmHg 59%
    08:00 +27°C° 0 mm 1 m/S 755 mmHg 52%
    09:00 +29°C° 0 mm 1 m/S 755 mmHg 46%
    10:00 +30°C° 0 mm 1 m/S 755 mmHg 42%
    11:00 +31°C° 0 mm 1 m/S 755 mmHg 38%
    12:00 +33°C° 0 mm 1 m/S 755 mmHg 34%
    13:00 +32°C° 0 mm 1 m/S 755 mmHg 35%
    14:00 +32°C° 0 mm 1 m/S 755 mmHg 37%
    15:00 +31°C° 0 mm 1 m/S 755 mmHg 38%
    16:00 +31°C° 0 mm 1 m/S 755 mmHg 40%
    17:00 +30°C° 0 mm 2 m/S 755 mmHg 43%
    18:00 +29°C° 0 mm 2 m/S 755 mmHg 46%
    19:00 +28°C° 0,1 mm 2 m/S 755 mmHg 51%
    20:00 +26°C° 0,1 mm 2 m/S 756 mmHg 56%
    21:00 +25°C° 0,1 mm 2 m/S 756 mmHg 61%
    22:00 +24°C° 0,4 mm 2 m/S 756 mmHg 68%
    23:00 +23°C° 0,4 mm 2 m/S 756 mmHg 74%

    übermorgen, 22 Juli, Sonntag

    Zeit Temperatur Niederschläge Wind Luftdruck Luftfeuchtigkeit
    00:00 +20°C° 0,4 mm 2 m/S 756 mmHg 81%
    01:00 +20°C° 0,3 mm 2 m/S 756 mmHg 82%
    02:00 +19°C° 0,3 mm 2 m/S 756 mmHg 84%
    03:00 +19°C° 0,3 mm 2 m/S 756 mmHg 86%
    04:00 +19°C° 0 mm 2 m/S 757 mmHg 85%
    05:00 +20°C° 0 mm 2 m/S 757 mmHg 84%
    06:00 +20°C° 0 mm 2 m/S 757 mmHg 82%
    07:00 +23°C° 0 mm 2 m/S 757 mmHg 75%
    08:00 +24°C° 0 mm 2 m/S 757 mmHg 67%
    09:00 +26°C° 0 mm 3 m/S 757 mmHg 60%
    10:00 +28°C° 0,1 mm 3 m/S 757 mmHg 54%
    11:00 +29°C° 0,1 mm 3 m/S 757 mmHg 49%
    12:00 +30°C° 0,1 mm 3 m/S 757 mmHg 43%
    13:00 +30°C° 0,1 mm 3 m/S 757 mmHg 43%
    14:00 +30°C° 0,1 mm 3 m/S 757 mmHg 43%
    15:00 +30°C° 0,1 mm 4 m/S 757 mmHg 43%
    16:00 +29°C° 0,1 mm 4 m/S 757 mmHg 45%
    17:00 +28°C° 0,1 mm 4 m/S 757 mmHg 47%
    18:00 +28°C° 0,1 mm 4 m/S 757 mmHg 49%
    19:00 +26°C° 0 mm 3 m/S 758 mmHg 54%
    20:00 +24°C° 0 mm 3 m/S 758 mmHg 58%
    21:00 +22°C° 0 mm 3 m/S 759 mmHg 63%
    22:00 +21°C° 0 mm 3 m/S 759 mmHg 66%
    23:00 +20°C° 0 mm 2 m/S 759 mmHg 70%

    23 Juli, Montag

    Zeit Temperatur Niederschläge Wind Luftdruck Luftfeuchtigkeit
    00:00 +19°C° 0 mm 2 m/S 759 mmHg 73%
    01:00 +18°C° 0 mm 2 m/S 759 mmHg 76%
    02:00 +19°C° 0 mm 1 m/S 759 mmHg 78%
    03:00 +18°C° 0 mm 1 m/S 759 mmHg 80%
    04:00 +19°C° 0 mm 1 m/S 759 mmHg 77%
    05:00 +20°C° 0 mm 1 m/S 759 mmHg 74%
    06:00 +21°C° 0 mm 1 m/S 759 mmHg 71%
    07:00 +22°C° 0 mm 1 m/S 759 mmHg 64%
    08:00 +24°C° 0 mm 1 m/S 759 mmHg 56%
    09:00 +26°C° 0 mm 1 m/S 759 mmHg 49%
    10:00 +27°C° 0 mm 1 m/S 759 mmHg 46%
    11:00 +28°C° 0 mm 1 m/S 759 mmHg 43%
    12:00 +29°C° 0 mm 2 m/S 759 mmHg 40%
    13:00 +29°C° 0 mm 2 m/S 759 mmHg 40%
    14:00 +30°C° 0 mm 2 m/S 759 mmHg 40%
    15:00 +30°C° 0 mm 2 m/S 758 mmHg 40%
    16:00 +29°C° 0 mm 2 m/S 758 mmHg 43%
    17:00 +29°C° 0 mm 2 m/S 758 mmHg 46%
    18:00 +28°C° 0 mm 2 m/S 758 mmHg 49%
    19:00 +27°C° 0 mm 1 m/S 758 mmHg 53%
    20:00 +25°C° 0 mm 1 m/S 759 mmHg 57%
    21:00 +24°C° 0 mm 1 m/S 759 mmHg 62%
    22:00 +23°C° 0 mm 1 m/S 759 mmHg 64%
    23:00 +23°C° 0 mm 1 m/S 759 mmHg 66%

    24 Juli, Dienstag

    Zeit Temperatur Niederschläge Wind Luftdruck Luftfeuchtigkeit
    00:00 +22°C° 0 mm 1 m/S 758 mmHg 68%
    01:00 +22°C° 0 mm 1 m/S 758 mmHg 70%
    02:00 +22°C° 0 mm 1 m/S 758 mmHg 71%
    03:00 +21°C° 0 mm 1 m/S 758 mmHg 72%
    04:00 +22°C° 0 mm 1 m/S 758 mmHg 69%
    05:00 +23°C° 0 mm 1 m/S 758 mmHg 66%
    06:00 +24°C° 0 mm 1 m/S 757 mmHg 63%
    07:00 +26°C° 0 mm 1 m/S 757 mmHg 57%
    08:00 +27°C° 0 mm 1 m/S 757 mmHg 51%
    09:00 +29°C° 0 mm 1 m/S 757 mmHg 45%
    10:00 +30°C° 0 mm 1 m/S 757 mmHg 42%
    11:00 +31°C° 0 mm 1 m/S 756 mmHg 40%
    12:00 +32°C° 0 mm 1 m/S 756 mmHg 37%
    13:00 +32°C° 0 mm 1 m/S 756 mmHg 37%
    14:00 +29°C° 0 mm 0 m/S 756 mmHg 37%
    15:00 +29°C° 0 mm 0 m/S 756 mmHg 38%
    16:00 +31°C° 0 mm 1 m/S 756 mmHg 40%
    17:00 +30°C° 0 mm 1 m/S 756 mmHg 42%
    18:00 +29°C° 0 mm 1 m/S 756 mmHg 44%
    19:00 +28°C° 0 mm 1 m/S 756 mmHg 48%
    20:00 +27°C° 0 mm 1 m/S 756 mmHg 52%
    21:00 +25°C° 0 mm 1 m/S 756 mmHg 55%
    22:00 +25°C° 0 mm 1 m/S 756 mmHg 57%
    23:00 +25°C° 0 mm 1 m/S 756 mmHg 59%

    25 Juli, Mittwoch

    Zeit Temperatur Niederschläge Wind Luftdruck Luftfeuchtigkeit
    00:00 +24°C° 0 mm 1 m/S 756 mmHg 61%
    01:00 +24°C° 0 mm 1 m/S 756 mmHg 62%
    02:00 +24°C° 0 mm 1 m/S 756 mmHg 63%
    03:00 +23°C° 0 mm 1 m/S 756 mmHg 65%
    04:00 +24°C° 0 mm 1 m/S 757 mmHg 63%
    05:00 +24°C° 0 mm 1 m/S 757 mmHg 61%
    06:00 +25°C° 0 mm 1 m/S 757 mmHg 59%
    07:00 +26°C° 0 mm 1 m/S 757 mmHg 55%
    08:00 +28°C° 0 mm 1 m/S 757 mmHg 51%
    09:00 +29°C° 0 mm 2 m/S 757 mmHg 46%
    10:00 +30°C° 0 mm 2 m/S 757 mmHg 43%
    11:00 +31°C° 0 mm 2 m/S 757 mmHg 40%
    12:00 +32°C° 0 mm 2 m/S 757 mmHg 36%
    13:00 +32°C° 0 mm 2 m/S 757 mmHg 38%
    14:00 +31°C° 0 mm 2 m/S 757 mmHg 39%
    15:00 +31°C° 0 mm 2 m/S 757 mmHg 41%
    16:00 +30°C° 0 mm 2 m/S 757 mmHg 45%
    17:00 +29°C° 0 mm 3 m/S 757 mmHg 48%
    18:00 +28°C° 0 mm 3 m/S 757 mmHg 52%
    19:00 +27°C° 0,1 mm 3 m/S 758 mmHg 57%
    20:00 +26°C° 0,1 mm 3 m/S 758 mmHg 63%
    21:00 +24°C° 0,1 mm 3 m/S 759 mmHg 68%
    22:00 +23°C° 0 mm 2 m/S 759 mmHg 72%
    23:00 +21°C° 0 mm 2 m/S 759 mmHg 77%
    Mehr zeigen